Showing default

DMSP 5D-2 F13 (USA 109), 23533

Orbit data source: Space-Track

DMSP 5D-2 F13 (USA 109), 23533 is a payload satellite owned by USAF SMC (US) in SSO that was launched on Fri, 24 Mar 1995 UTC via an ATLAS E launch vehicle from the Air Force Western Test Range (AFWTR). Payloads include a variety of satellites, spacecraft, and rockets equipped with specific instruments for various scientific and technological missions. These include communications satellites like Starlink; space stations such as the ISS; scientific satellites like the Hubble; Earth observation satellites from companies like Planet Labs, Umbra, and HawkEye 360; GPS; miniature CubeSats for education and research; and military/defense satellites.

Loading next visibility...
DMSP 5D-2 F13 (USA 109) details
Identifier
23533, 1995-015A
Orbit
SSO
Last TLE update18 hours ago
Origin
Flag of USUSAF SMC (US)
ManufacturerLMT/EW
MissionNon-operational Defense Weather
Bus & MotorBLOCK 5D, STAR 37S
Mass1,456 kg wet, 749 kg dry
Launch date (UTC)
1995-03-24 (30 years ago)
Launch vehicle
ATLAS E
Launch site
Air Force Western Test Range (AFWTR)
Object type
Payload
Rocket body
Debris
Shape & HBRCyl + 1 Pan, 5 m
Radar Cross Section4.290 m², Large (>1 m²)

Expand to show TLE details & history

TLE from 18 hours ago
0 DMSP 5D-2 F13 (USA 109)
1 23533U 95015A   24360.67207416  .00000542  00000-0  29316-3 0  9999
2 23533  98.8190   8.5328 0005844 251.0402 219.8076 14.16763119537001
Epoch: 2024-12-25T16:07Z
Definitive object data (Epoch: 2024-12-25T16:07:47.207Z)
Latitude67.56297°
Longitude-126.12962°
Altitude851.209 km
Speed7.432 km/s
True Right ascension14h 01m 55s
True Declination67° 26' 35"
Sunlit
Object was in daylight at TLE epoch
Visualization TLE readout
Latitude12.66604°
Longitude30.68684°
Altitude840.824 km
Speed7.432 km/s
Apparent Right ascension23h 20m 27s
Apparent Declination-12° 36' 26"
Sunlit
Object is in daylight
Visualization observer readout
Local Sidereal Time09:39:55
Azimuth313.943° NW
Elevation-54.852°
Doppler factor1
Orbital elements
Apogee altitude837.703 km
Perigee altitude829.274 km
Semi-major axis7,211.626 km
Eccentricity0.0005844
Inclination98.819°
RAAN8.5328°
Arg. of periapsis251.0402°
True anomaly219.76475°
Mean anomaly219.8076°
Eccentric anomaly219.78617°
Mean motion3.544 °/min
BSTAR0.00029316
Orbital period101.58 mins
Loading maneuver chart data...

DMSP 5D-2 F13 (USA 109) Visibility forecast

Observer location: undefined°, undefined

Span
Click to sort rows by Start time (UTC) header in descending order
Start Az.
Max El. time (UTC)
Max El. Az.
Max El.
End time (UTC)
End Az.
7 mins2024-12-26 12:33:45.455Z52.669° ENE2024-12-26 12:36:45.455Z92.08° ESE20.209°2024-12-26 12:40:45.455Z141.614° SSE
8 mins2024-12-26 14:13:45.455Z355.477° N2024-12-26 14:17:45.455Z279.324° WNW36.015°2024-12-26 14:21:45.455Z220.666° SW
8 mins2024-12-26 23:57:45.455Z121.662° SE2024-12-27 00:00:45.455Z71.932° E30.372°2024-12-27 00:05:45.455Z3.899° NNE
8 mins2024-12-27 01:37:45.455Z212.655° SW2024-12-27 01:41:45.455Z272.827° WNW25.416°2024-12-27 01:45:45.455Z322.065° NNW
|